User: anonymous   Login
Location: Unspecified
(0.0000°N, 0.0000°E)
Time: 08:21:44
(UTC+00:00)
Language:

HO-68 - Orbit

View from above orbital plane
View from above orbital plane
View from above satellite
View from above satellite

Ground track
Ground track

The orbit data is extracted from the following two-line orbital elements,

1 36122U 09072B   18145.59103789 -.00000028 +00000-0 +37225-4 0  9997
2 36122 100.0762 161.2825 0007768 159.4761 200.6666 13.16344757405576
Epoch (UTC): 25 May 2018 14:11:05
Eccentricity: 0.0007768
inclination: 100.0762°
perigee height: 1193 km
apogee height: 1204 km
right ascension of ascending node: 161.2825°
argument of perigee: 159.4761°
revolutions per day: 13.16344757
mean anomaly at epoch: 200.6666°
orbit number at epoch: 40557

The dashed part of the orbit path shows where the satellite is in the earth's shadow,  

DLR